[[{"header":{"parameterUnit":"m.s-1","parameterCategory":2,"la1":30.2991,"la2":30.254,"lo1":-89.0895,"lo2":-89.0444,"dy":0.0017,"dx":0.0017,"nx":28,"ny":28,"refTime":"2025-04-18T21:00:00:Z","depth":"0","parameterNumber":2,"parameterNumberName":"U-component_of_CURRENTS"},"data":[0,0,0,0,0,0,0,0,0,0,0,0,0,0,0,0,0,0,0,0,0,0,0,0,0,0,0,0,0,0,0,0,0,0,0,0,0,0,0,0,0,0,0,0,0,0,0,0,0,0,0,0,0,0,0,0,0,0,-0.2939,-0.294,0,-0.2969,-0.2969,-0.2969,-0.2927,-0.2925,-0.2924,-0.2923,-0.2861,-0.2861,-0.286,0,0,0,0,0,0,0,0,0,0,0,0,0,-0.2835,-0.2837,-0.2939,-0.294,-0.2941,-0.2969,-0.2969,-0.2969,-0.2927,-0.2925,-0.2924,-0.2923,-0.2861,-0.2861,-0.286,0,0,0,0,0,0,0,0,0,0,0,0,0,-0.2871,-0.2837,-0.2939,-0.2925,-0.2924,-0.2969,-0.2969,-0.2969,-0.2927,-0.2925,-0.2924,-0.2922,-0.2862,-0.2861,-0.286,-0.2892,0,0,-0.2858,-0.2857,0,0,0,0,0,0,0,0,-0.2869,-0.2874,-0.2927,-0.2926,-0.2926,-0.2945,-0.291,-0.294,-0.2928,-0.2923,-0.2923,-0.2921,-0.2884,-0.2882,-0.2888,-0.2889,-0.2886,-0.2858,-0.2857,-0.2857,-0.2857,0,0,0,0,0,0,0,-0.2866,-0.2873,-0.2948,-0.2928,-0.2927,-0.2914,-0.2917,-0.2915,-0.2909,-0.2923,-0.2921,-0.293,-0.2882,-0.2889,-0.2886,-0.2885,-0.2858,-0.2857,-0.2857,-0.2856,-0.2903,-0.2905,0,0,0,0,0,0,-0.2872,-0.2871,-0.2947,-0.2949,-0.2896,-0.2917,-0.2921,-0.2938,-0.2911,-0.2907,-0.2931,-0.2928,-0.2891,-0.2887,-0.2884,-0.2907,-0.2857,-0.2856,-0.2856,-0.2901,-0.2903,-0.2905,0,0,0,0,0,0,-0.287,-0.2879,-0.2946,-0.2912,-0.292,-0.2922,-0.2941,-0.294,-0.2939,-0.2919,-0.2912,-0.2931,-0.289,-0.2885,-0.2888,-0.2904,-0.2856,-0.2855,-0.2899,-0.2902,-0.2904,-0.2962,0,0,0,0,0,0,-0.2867,-0.2878,-0.2889,-0.2913,-0.2922,-0.2977,-0.2943,-0.2942,-0.2949,-0.2944,-0.2917,-0.291,-0.2888,-0.289,-0.2888,-0.2903,-0.2855,-0.2897,-0.29,-0.2903,-0.2958,-0.2966,-0.2973,0,0,0,0,0,-0.2863,-0.289,-0.2889,-0.2898,-0.2939,-0.2979,-0.2982,-0.2974,-0.2951,-0.2963,-0.2944,-0.291,-0.2908,-0.2891,-0.2888,-0.2903,-0.2896,-0.29,-0.2903,-0.2954,-0.2964,-0.2973,0,0,0,0,0,0,-0.285,-0.2889,-0.2889,-0.2925,-0.2952,-0.2973,-0.2983,-0.2979,-0.2977,-0.2965,-0.2933,-0.2927,-0.2937,-0.292,-0.2902,-0.2929,-0.2896,-0.29,-0.2936,-0.2946,-0.2953,-0.2942,-0.2854,0,0,0,0,0,-0.2855,-0.288,-0.2917,-0.2943,-0.296,-0.2971,-0.2983,-0.2984,-0.2989,-0.2985,-0.2969,-0.2955,-0.2955,-0.2948,-0.2947,-0.2962,-0.2933,-0.2972,-0.2979,-0.2986,-0.2977,-0.2967,-0.2972,-0.2918,-0.2918,-0.2918,0,0,-0.2854,-0.288,-0.2892,-0.2941,-0.2956,-0.2988,-0.2973,-0.3001,-0.3018,-0.298,-0.2989,-0.2982,-0.2967,-0.2985,-0.2987,-0.2967,-0.2987,-0.2991,-0.2996,-0.2983,-0.2971,-0.2976,-0.298,-0.292,-0.292,-0.292,0,0,-0.2864,-0.2892,-0.2913,-0.2944,-0.2981,-0.3,-0.301,-0.3037,-0.3039,-0.3061,-0.3037,-0.304,-0.304,-0.3034,-0.303,-0.3081,-0.3031,-0.3084,-0.3107,-0.3098,-0.3102,-0.3104,-0.3073,-0.3072,-0.3084,-0.3084,-0.3084,0,-0.2856,-0.2893,-0.2926,-0.2958,-0.2981,-0.3006,-0.3033,-0.3055,-0.3076,-0.3081,-0.3068,-0.3076,-0.3062,-0.3077,-0.3094,-0.3095,-0.3074,-0.307,-0.3106,-0.3108,-0.311,-0.3076,-0.3075,-0.3087,-0.3087,-0.3087,-0.3086,0,-0.288,-0.2912,-0.2932,-0.2978,-0.3012,-0.3045,-0.3087,-0.3111,-0.3116,-0.3128,-0.3146,-0.3141,-0.3136,-0.3145,-0.3132,-0.3147,-0.3123,-0.3118,-0.3076,-0.3118,-0.3081,-0.3078,-0.3092,-0.3091,-0.309,-0.3089,0,0,-0.2838,-0.2929,-0.2929,-0.2955,-0.3025,-0.3052,-0.3101,-0.3144,-0.3161,-0.3183,-0.3195,-0.3209,-0.3197,-0.3192,-0.3183,-0.3179,-0.3176,-0.3155,-0.3153,-0.3112,-0.3139,-0.3067,-0.3056,-0.3178,-0.3178,-0.3178,-0.3106,0,-0.2835,-0.2892,-0.2942,-0.2991,-0.3024,-0.3079,-0.3122,-0.3165,-0.3193,-0.3216,-0.3221,-0.323,-0.322,-0.3216,-0.3214,-0.3189,-0.3172,-0.3194,-0.3113,-0.311,-0.3032,-0.3052,-0.2938,-0.286,-0.3104,-0.3103,-0.3103,0,-0.2823,-0.2868,-0.2914,-0.2999,-0.3018,-0.3052,-0.3116,-0.3159,-0.3213,-0.3233,-0.325,-0.3254,-0.3256,-0.324,-0.3207,-0.3221,-0.3179,-0.3156,-0.3153,-0.3059,-0.3033,-0.286,-0.2846,-0.283,-0.3098,-0.3099,-0.3099,0,-0.2753,-0.284,-0.2873,-0.2902,-0.3005,-0.303,-0.3078,-0.3148,-0.3185,-0.3232,-0.3255,-0.3265,-0.3261,-0.323,-0.3187,-0.3195,-0.3138,-0.3141,-0.3032,-0.3026,-0.2897,-0.2879,-0.2843,-0.3103,-0.3103,-0.3103,-0.3103,0,-0.272,-0.2741,-0.2841,-0.2858,-0.2898,-0.2984,-0.3028,-0.3082,-0.3157,-0.3186,-0.3243,-0.3254,-0.326,-0.3236,-0.3189,-0.3095,-0.3133,-0.3026,-0.3003,-0.2914,-0.29,-0.2853,-0.2874,-0.31,-0.3101,-0.3101,-0.3102,0,-0.2625,-0.2694,-0.2736,-0.2837,-0.2864,-0.2884,-0.2992,-0.3023,-0.3113,-0.3152,-0.3166,-0.3239,-0.3205,-0.3192,-0.3135,-0.3083,-0.2953,-0.2963,-0.2848,-0.2813,-0.2693,-0.2721,-0.2632,-0.256,-0.2828,-0.2826,-0.2824,0,-0.2579,-0.2591,-0.2687,-0.2702,-0.2741,-0.2799,-0.2837,-0.2965,-0.3006,-0.3123,-0.3123,-0.3146,-0.3107,-0.3021,-0.2949,-0.2846,-0.2848,-0.269,-0.2686,-0.2661,-0.2677,-0.2694,-0.2642,-0.2537,-0.2533,-0.2529,-0.2527,0,-0.2478,-0.251,-0.254,-0.2582,-0.2618,-0.2672,-0.274,-0.2775,-0.2912,-0.2956,-0.2982,-0.2965,-0.2923,-0.2785,-0.2696,-0.2624,-0.2627,-0.2618,-0.2623,-0.2466,-0.245,-0.2377,-0.2609,-0.2497,-0.25,-0.2502,-0.2504,-0.2505,-0.2375,-0.237,-0.2408,-0.243,-0.2474,-0.2501,-0.2491,-0.2582,-0.2621,-0.265,-0.2754,-0.2693,-0.2657,-0.2514,-0.2452,-0.2336,-0.2395,-0.2272,-0.2312,-0.2335,-0.2254,-0.2412,-0.2264,-0.2265,-0.2267,-0.2268,-0.2269,0,-0.2233,-0.2239,-0.2254,-0.2274,-0.2254,-0.2336,-0.2383,-0.2343,-0.232,-0.2398,-0.2393,-0.2363,-0.2246,-0.2236,-0.215,-0.2063,-0.2022,-0.2029,-0.2037,-0.2,-0.2149,-0.2125,-0.1902,-0.1902,-0.1902,-0.1902,-0.1902,-0.1902,-0.2156,-0.211,-0.2121,-0.2036,-0.2044,-0.1963,-0.1949,-0.1919,-0.1937,-0.1889,-0.1908,-0.1967,-0.1993,-0.2144,-0.204,-0.1951,-0.1915,-0.1852,-0.1891,-0.2024,-0.2051,-0.2077,-0.2059,-0.1826,-0.1826,-0.1663,-0.1662,-0.1662]},{"header":{"parameterUnit":"m.s-1","parameterCategory":2,"la1":30.2991,"la2":30.254,"lo1":-89.0895,"lo2":-89.0444,"dy":0.0017,"dx":0.0017,"nx":28,"ny":28,"refTime":"2025-04-18T21:00:00:Z","depth":"0","parameterNumber":3,"parameterNumberName":"V-component_of_CURRENTS"},"data":[0,0,0,0,0,0,0,0,0,0,0,0,0,0,0,0,0,0,0,0,0,0,0,0,0,0,0,0,0,0,0,0,0,0,0,0,0,0,0,0,0,0,0,0,0,0,0,0,0,0,0,0,0,0,0,0,0,0,-0.0223,-0.0222,0,-0.0102,-0.0101,-0.0099,-0.0017,-0.0016,-0.0016,-0.0015,0.0127,0.013,0.0134,0,0,0,0,0,0,0,0,0,0,0,0,0,-0.0305,-0.0304,-0.0223,-0.0222,-0.0221,-0.0102,-0.0101,-0.0099,-0.0017,-0.0016,-0.0016,-0.0015,0.0126,0.013,0.0134,0,0,0,0,0,0,0,0,0,0,0,0,0,-0.0234,-0.0304,-0.0224,-0.0166,-0.016,-0.0103,-0.0101,-0.0098,-0.0017,-0.0016,-0.0015,-0.0015,0.0125,0.0129,0.0134,0.0151,0,0,0.015,0.0152,0,0,0,0,0,0,0,0,-0.0238,-0.0231,-0.0176,-0.017,-0.0163,-0.0075,-0.0077,-0.0014,-0.0017,-0.007,-0.0015,-0.0014,0.006,0.007,0.0093,0.0158,0.0164,0.015,0.0153,0.0155,0.0157,0,0,0,0,0,0,0,-0.0244,-0.0235,-0.0174,-0.0175,-0.0167,-0.012,-0.011,-0.0064,-0.0009,-0.0065,-0.0059,-0.0048,0.0064,0.0088,0.0097,0.0166,0.015,0.0155,0.0158,0.016,0.0278,0.0278,0,0,0,0,0,0,-0.0266,-0.0241,-0.0178,-0.017,-0.0201,-0.012,-0.0108,-0.0103,-0.001,0.0005,-0.0049,-0.0045,0.0079,0.0091,0.0103,0.0141,0.0155,0.016,0.0163,0.0278,0.0278,0.0278,0,0,0,0,0,0,-0.0269,-0.0262,-0.0183,-0.0203,-0.019,-0.012,-0.0114,-0.0101,-0.0077,0.0002,0.0017,-0.0039,0.008,0.0095,0.0147,0.0147,0.0162,0.0167,0.0278,0.0278,0.0278,0.0211,0,0,0,0,0,0,-0.0272,-0.0264,-0.0271,-0.0205,-0.019,-0.0158,-0.0114,-0.0099,-0.0072,-0.0065,0.0016,0.003,0.0082,0.0139,0.0152,0.0154,0.0171,0.0278,0.0278,0.0278,0.0213,0.0208,0.0205,0,0,0,0,0,-0.0275,-0.0291,-0.0272,-0.0264,-0.0201,-0.0158,-0.0146,-0.0092,-0.0072,-0.0067,-0.0006,0.0028,0.015,0.0143,0.0158,0.0162,0.0278,0.0278,0.0278,0.0214,0.0209,0.0205,0,0,0,0,0,0,-0.0332,-0.0282,-0.026,-0.0261,-0.0217,-0.0145,-0.0139,-0.0101,-0.0049,-0.0044,0.0031,0.005,0.0093,0.0136,0.0127,0.0197,0.0218,0.0222,0.0165,0.016,0.0156,0.0138,0.0175,0,0,0,0,0,-0.0349,-0.0348,-0.0288,-0.0291,-0.0273,-0.0208,-0.0186,-0.0149,-0.0093,-0.0069,-0.001,0.0052,0.0106,0.0138,0.0189,0.0227,0.0274,0.024,0.0236,0.0232,0.0228,0.0298,0.03,0.0279,0.0279,0.0279,0,0,-0.0373,-0.0346,-0.0345,-0.0303,-0.0265,-0.0247,-0.0193,-0.0167,-0.0144,-0.0063,-0.0021,0.0036,0.0112,0.0158,0.0181,0.0195,0.0263,0.0232,0.0229,0.0227,0.0298,0.03,0.0302,0.028,0.028,0.028,0,0,-0.042,-0.0396,-0.0408,-0.0376,-0.0329,-0.0285,-0.0283,-0.0214,-0.0178,-0.0131,-0.0066,-0.0006,0.0071,0.0134,0.0174,0.0178,0.0235,0.0189,0.0162,0.0229,0.0232,0.0234,0.0294,0.0303,0.0192,0.0192,0.0192,0,-0.0451,-0.0454,-0.0405,-0.0403,-0.0383,-0.0309,-0.031,-0.0261,-0.0183,-0.015,-0.013,0.0002,0.0063,0.0136,0.014,0.017,0.0212,0.0172,0.0224,0.0227,0.0231,0.0292,0.0302,0.0189,0.0189,0.019,0.019,0,-0.0497,-0.0498,-0.0503,-0.0475,-0.0446,-0.0438,-0.0365,-0.033,-0.0279,-0.0219,-0.0143,-0.0052,0.0028,0.0057,0.0102,0.016,0.0182,0.0205,0.0231,0.0228,0.0294,0.0305,0.0184,0.0186,0.0186,0.0187,0,0,-0.0569,-0.0543,-0.0545,-0.0545,-0.0484,-0.0468,-0.0429,-0.0366,-0.0336,-0.0253,-0.0202,-0.01,-0.0045,0.0003,0.0073,0.0137,0.0201,0.0173,0.0178,0.0225,0.0345,0.0393,0.0412,0.0229,0.0231,0.0232,0.0379,0,-0.0619,-0.0646,-0.0607,-0.0619,-0.0624,-0.0545,-0.0514,-0.0444,-0.037,-0.0302,-0.019,-0.0119,-0.0065,-0.0025,0.0045,0.0165,0.0229,0.0159,0.0348,0.0353,0.0391,0.0426,0.0474,0.0611,0.0391,0.0393,0.0394,0,-0.0671,-0.0683,-0.0713,-0.069,-0.0683,-0.0673,-0.0607,-0.0568,-0.0447,-0.0386,-0.029,-0.0195,-0.0078,-0.0041,0.0157,0.0107,0.0212,0.0303,0.0312,0.0389,0.0424,0.058,0.0641,0.0811,0.0413,0.0411,0.041,0,-0.0749,-0.0752,-0.0783,-0.0776,-0.0737,-0.0728,-0.0698,-0.0598,-0.056,-0.0436,-0.0388,-0.0237,-0.015,-0.0006,0.019,0.0172,0.0407,0.0412,0.0556,0.056,0.0655,0.0665,0.0898,0.0541,0.0541,0.054,0.054,0,-0.0815,-0.0836,-0.0826,-0.0844,-0.0871,-0.0809,-0.0802,-0.0742,-0.0647,-0.0594,-0.0444,-0.0358,-0.0138,0.0031,0.0184,0.0418,0.0409,0.0562,0.0608,0.0633,0.0639,0.0834,0.088,0.0546,0.0545,0.0543,0.0543,0,-0.0889,-0.0881,-0.092,-0.0911,-0.0911,-0.0931,-0.0891,-0.0875,-0.0772,-0.0697,-0.0658,-0.0436,-0.0201,0.0026,0.0293,0.0423,0.0742,0.0711,0.0724,0.0768,0.1037,0.1074,0.1323,0.1419,0.0886,0.0889,0.089,0,-0.0928,-0.0958,-0.099,-0.1022,-0.1024,-0.1037,-0.1039,-0.0954,-0.0921,-0.0733,-0.0697,-0.0447,-0.024,0.0174,0.0457,0.0753,0.0864,0.095,0.0926,0.1077,0.1154,0.1171,0.1233,0.1029,0.1032,0.1034,0.1036,0,-0.1001,-0.1013,-0.1048,-0.1123,-0.1151,-0.1171,-0.1159,-0.1153,-0.1025,-0.0913,-0.0712,-0.0525,-0.0099,0.0292,0.0673,0.0845,0.1072,0.1004,0.1175,0.1299,0.1322,0.1427,0.0897,0.1056,0.1054,0.1053,0.1052,0.1051,-0.1049,-0.1099,-0.115,-0.1215,-0.1255,-0.1281,-0.1283,-0.1223,-0.1138,-0.0926,-0.0739,-0.0382,0.0146,0.0712,0.0906,0.1329,0.1261,0.1448,0.1487,0.1495,0.1579,0.1085,0.1282,0.1281,0.128,0.128,0.1279,0,-0.1102,-0.1156,-0.1233,-0.1302,-0.1355,-0.1348,-0.1336,-0.1282,-0.116,-0.0904,-0.0649,0.0022,0.0547,0.1017,0.1587,0.1805,0.1838,0.1911,0.1962,0.2006,0.1604,0.1604,0.1862,0.1862,0.1862,0.1861,0.1861,0.1861,-0.1129,-0.1216,-0.126,-0.1363,-0.1407,-0.1428,-0.1412,-0.1283,-0.1089,-0.0643,-0.0216,0.0134,0.0802,0.1688,0.2215,0.2258,0.2429,0.2406,0.2494,0.2228,0.2188,0.2149,0.2165,0.2536,0.2537,0.2897,0.29,0.2903]}],[{"header":{"parameterUnit":"m.s-1","parameterCategory":2,"la1":30.2991,"la2":30.254,"lo1":-89.0895,"lo2":-89.0444,"dy":0.0017,"dx":0.0017,"nx":28,"ny":28,"refTime":"2025-04-18T21:00:00:Z","depth":"2","parameterNumber":2,"parameterNumberName":"U-component_of_CURRENTS"},"data":[0,0,0,0,0,0,0,0,0,0,0,0,0,0,0,0,0,0,0,0,0,0,0,0,0,0,0,0,0,0,0,0,0,0,0,0,0,0,0,0,0,0,0,0,0,0,0,0,0,0,0,0,0,0,0,0,0,0,-0.2712,-0.2712,0,-0.2743,-0.2743,-0.2743,-0.2712,-0.2711,-0.271,-0.2709,-0.266,-0.2659,-0.2659,0,0,0,0,0,0,0,0,0,0,0,0,0,-0.2613,-0.2614,-0.2712,-0.2712,-0.2713,-0.2743,-0.2743,-0.2743,-0.2712,-0.2711,-0.271,-0.2708,-0.266,-0.2659,-0.2659,0,0,0,0,0,0,0,0,0,0,0,0,0,-0.2648,-0.2615,-0.2712,-0.2703,-0.2703,-0.2743,-0.2743,-0.2743,-0.2712,-0.2711,-0.2709,-0.2708,-0.266,-0.2659,-0.2659,-0.2683,0,0,-0.2657,-0.2656,0,0,0,0,0,0,0,0,-0.2646,-0.2651,-0.2704,-0.2704,-0.2704,-0.2725,-0.269,-0.272,-0.2712,-0.2705,-0.2709,-0.2707,-0.2677,-0.2675,-0.2681,-0.2681,-0.2679,-0.2657,-0.2656,-0.2656,-0.2656,0,0,0,0,0,0,0,-0.2644,-0.265,-0.2721,-0.2705,-0.2705,-0.2694,-0.2697,-0.2696,-0.2695,-0.2706,-0.2704,-0.2713,-0.2676,-0.2681,-0.2679,-0.2678,-0.2657,-0.2656,-0.2656,-0.2656,-0.2702,-0.2703,0,0,0,0,0,0,-0.2649,-0.2648,-0.272,-0.2722,-0.2674,-0.2697,-0.2701,-0.2717,-0.2697,-0.2694,-0.2715,-0.2712,-0.2683,-0.268,-0.2677,-0.2705,-0.2656,-0.2655,-0.2655,-0.27,-0.2702,-0.2704,0,0,0,0,0,0,-0.2647,-0.2655,-0.2719,-0.2687,-0.2695,-0.2701,-0.2719,-0.2718,-0.2722,-0.2705,-0.2699,-0.2719,-0.2682,-0.2678,-0.2685,-0.2702,-0.2655,-0.2655,-0.2698,-0.2701,-0.2703,-0.276,0,0,0,0,0,0,-0.2644,-0.2654,-0.2666,-0.2688,-0.2697,-0.275,-0.2721,-0.272,-0.2731,-0.2728,-0.2707,-0.2701,-0.2681,-0.2686,-0.2684,-0.2701,-0.2654,-0.2696,-0.2699,-0.2702,-0.2756,-0.2764,-0.2771,0,0,0,0,0,-0.264,-0.2666,-0.2666,-0.2675,-0.2714,-0.2751,-0.2755,-0.2751,-0.2733,-0.2746,-0.2732,-0.2702,-0.2704,-0.2688,-0.2685,-0.2701,-0.2695,-0.2698,-0.2702,-0.2753,-0.2763,-0.2771,0,0,0,0,0,0,-0.2629,-0.2666,-0.2667,-0.2702,-0.2727,-0.2747,-0.276,-0.2758,-0.2759,-0.2751,-0.2723,-0.2718,-0.2731,-0.2715,-0.2698,-0.2726,-0.2694,-0.2698,-0.2734,-0.2743,-0.275,-0.2739,-0.2654,0,0,0,0,0,-0.2634,-0.2658,-0.2693,-0.2718,-0.2735,-0.2748,-0.276,-0.2764,-0.2771,-0.277,-0.2757,-0.2746,-0.2747,-0.2743,-0.2742,-0.2758,-0.273,-0.2768,-0.2775,-0.2782,-0.2773,-0.2763,-0.2768,-0.2716,-0.2716,-0.2716,0,0,-0.2634,-0.2659,-0.2671,-0.2717,-0.2733,-0.2763,-0.2751,-0.2781,-0.2798,-0.2765,-0.2778,-0.2773,-0.2759,-0.2777,-0.2781,-0.2762,-0.2784,-0.2786,-0.2791,-0.2779,-0.2767,-0.2772,-0.2776,-0.2718,-0.2718,-0.2717,0,0,-0.2645,-0.2673,-0.2693,-0.2723,-0.276,-0.2777,-0.2788,-0.2817,-0.2821,-0.2845,-0.2825,-0.283,-0.2833,-0.2826,-0.2822,-0.2871,-0.2826,-0.2876,-0.2899,-0.289,-0.2893,-0.2896,-0.2868,-0.2868,-0.2876,-0.2876,-0.2876,0,-0.2639,-0.2674,-0.2705,-0.2736,-0.2758,-0.2784,-0.2811,-0.2833,-0.2857,-0.2863,-0.2855,-0.2865,-0.2853,-0.2867,-0.2884,-0.2885,-0.2867,-0.2864,-0.2898,-0.29,-0.2901,-0.2872,-0.2871,-0.288,-0.2879,-0.2879,-0.2879,0,-0.2662,-0.2694,-0.2713,-0.2756,-0.2789,-0.2822,-0.2862,-0.2888,-0.2897,-0.2909,-0.2931,-0.2927,-0.2925,-0.2934,-0.2921,-0.2937,-0.2915,-0.2909,-0.287,-0.291,-0.2877,-0.2874,-0.2884,-0.2883,-0.2882,-0.2881,0,0,-0.2625,-0.271,-0.2711,-0.2736,-0.2803,-0.2829,-0.2876,-0.2918,-0.2937,-0.2962,-0.2976,-0.2991,-0.2984,-0.2979,-0.2972,-0.2968,-0.2967,-0.2946,-0.2944,-0.2908,-0.2934,-0.2863,-0.2853,-0.2969,-0.2969,-0.2969,-0.2905,0,-0.2623,-0.2677,-0.2723,-0.2771,-0.2803,-0.2855,-0.2897,-0.2939,-0.2968,-0.2993,-0.3,-0.3012,-0.3004,-0.3004,-0.3002,-0.2979,-0.2964,-0.2984,-0.2908,-0.2906,-0.2829,-0.2849,-0.2638,-0.2559,-0.2903,-0.2902,-0.2902,0,-0.2613,-0.2655,-0.27,-0.278,-0.2798,-0.2832,-0.2895,-0.2936,-0.2989,-0.3011,-0.3031,-0.3037,-0.3042,-0.3027,-0.2998,-0.3012,-0.2972,-0.2951,-0.2948,-0.2855,-0.283,-0.2576,-0.2542,-0.2898,-0.2898,-0.2898,-0.2899,0,-0.2548,-0.2631,-0.2664,-0.2691,-0.2788,-0.2815,-0.2861,-0.2928,-0.2964,-0.3013,-0.3038,-0.305,-0.3051,-0.3022,-0.2982,-0.299,-0.2937,-0.2938,-0.2833,-0.2827,-0.2617,-0.2592,-0.2902,-0.2902,-0.2902,-0.2903,-0.2903,0,-0.2518,-0.254,-0.2636,-0.2652,-0.2693,-0.2775,-0.2819,-0.2871,-0.2944,-0.2971,-0.303,-0.3041,-0.3051,-0.3028,-0.2984,-0.2896,-0.2933,-0.2828,-0.2806,-0.2632,-0.2611,-0.2881,-0.288,-0.29,-0.2901,-0.2901,-0.2902,0,-0.2431,-0.2497,-0.2538,-0.2635,-0.2662,-0.2684,-0.2788,-0.2817,-0.2906,-0.2942,-0.2958,-0.3029,-0.2999,-0.2988,-0.2936,-0.2885,-0.2816,-0.277,-0.256,-0.2515,-0.271,-0.2713,-0.2646,-0.2643,-0.2641,-0.2639,-0.2637,0,-0.2389,-0.2402,-0.2495,-0.251,-0.2548,-0.2606,-0.2642,-0.2765,-0.2801,-0.2914,-0.2913,-0.2939,-0.2899,-0.2819,-0.274,-0.264,-0.2727,-0.2404,-0.2382,-0.2698,-0.2684,-0.2691,-0.2697,-0.2122,-0.2116,-0.2112,-0.2108,0,-0.2294,-0.2328,-0.2356,-0.2397,-0.2433,-0.2482,-0.2547,-0.2577,-0.2706,-0.2746,-0.2767,-0.275,-0.2704,-0.2516,-0.243,-0.2349,-0.2409,-0.2304,-0.2667,-0.2236,-0.2203,-0.2191,-0.2213,-0.2065,-0.2069,-0.2072,-0.2075,-0.2076,-0.2199,-0.2195,-0.2232,-0.2254,-0.2296,-0.2315,-0.2302,-0.2381,-0.241,-0.2418,-0.2524,-0.2421,-0.2408,-0.2155,-0.2051,-0.1981,-0.2143,-0.2042,-0.2057,-0.2077,-0.2044,-0.201,-0.1827,-0.183,-0.1833,-0.1835,-0.1837,0,-0.2065,-0.2072,-0.2086,-0.2103,-0.2079,-0.2161,-0.2195,-0.2138,-0.2099,-0.2138,-0.2118,-0.1878,-0.1772,-0.1768,-0.1593,-0.1572,-0.1556,-0.1509,-0.1482,-0.1525,-0.1563,-0.1505,-0.1145,-0.1143,-0.1141,-0.1139,0,0,-0.1992,-0.1947,-0.1955,-0.1868,-0.1876,-0.179,-0.1769,-0.1706,-0.1686,-0.1561,-0.1509,-0.1644,-0.1687,-0.1404,-0.1354,-0.1217,-0.1354,-0.1156,-0.1707,-0.1715,-0.1751,-0.1863,-0.182,0,0,0,0,0]},{"header":{"parameterUnit":"m.s-1","parameterCategory":2,"la1":30.2991,"la2":30.254,"lo1":-89.0895,"lo2":-89.0444,"dy":0.0017,"dx":0.0017,"nx":28,"ny":28,"refTime":"2025-04-18T21:00:00:Z","depth":"2","parameterNumber":3,"parameterNumberName":"V-component_of_CURRENTS"},"data":[0,0,0,0,0,0,0,0,0,0,0,0,0,0,0,0,0,0,0,0,0,0,0,0,0,0,0,0,0,0,0,0,0,0,0,0,0,0,0,0,0,0,0,0,0,0,0,0,0,0,0,0,0,0,0,0,0,0,-0.0277,-0.0276,0,-0.0162,-0.016,-0.0159,-0.0082,-0.0082,-0.0081,-0.0081,0.0054,0.0057,0.0061,0,0,0,0,0,0,0,0,0,0,0,0,0,-0.0357,-0.0356,-0.0277,-0.0276,-0.0274,-0.0162,-0.016,-0.0159,-0.0082,-0.0081,-0.0081,-0.0081,0.0053,0.0057,0.0061,0,0,0,0,0,0,0,0,0,0,0,0,0,-0.0289,-0.0356,-0.0277,-0.0224,-0.0218,-0.0162,-0.016,-0.0158,-0.0082,-0.0081,-0.0081,-0.008,0.0052,0.0057,0.0061,0.0079,0,0,0.0076,0.0078,0,0,0,0,0,0,0,0,-0.0293,-0.0286,-0.0233,-0.0227,-0.0221,-0.0137,-0.0139,-0.0078,-0.0082,-0.0132,-0.0081,-0.008,-0.0009,0.0001,0.0023,0.0085,0.0091,0.0077,0.008,0.0082,0.0083,0,0,0,0,0,0,0,-0.0298,-0.029,-0.023,-0.0232,-0.0224,-0.018,-0.017,-0.0127,-0.0074,-0.0128,-0.0122,-0.0112,-0.0005,0.0018,0.0026,0.0093,0.0076,0.0081,0.0084,0.0086,0.0199,0.0199,0,0,0,0,0,0,-0.0319,-0.0295,-0.0234,-0.0227,-0.0257,-0.018,-0.0168,-0.0163,-0.0075,-0.0061,-0.0112,-0.0109,0.0009,0.0021,0.0031,0.007,0.0082,0.0086,0.0089,0.0199,0.0199,0.0199,0,0,0,0,0,0,-0.0322,-0.0315,-0.0238,-0.0259,-0.0246,-0.018,-0.0174,-0.0161,-0.0138,-0.0064,-0.0049,-0.0102,0.001,0.0025,0.0074,0.0075,0.0088,0.0093,0.0198,0.0199,0.0199,0.0139,0,0,0,0,0,0,-0.0325,-0.0317,-0.0323,-0.0261,-0.0246,-0.0214,-0.0174,-0.016,-0.0133,-0.0127,-0.005,-0.0037,0.0012,0.0067,0.0079,0.0082,0.0096,0.0198,0.0199,0.0199,0.0141,0.0137,0.0134,0,0,0,0,0,-0.0328,-0.0341,-0.0324,-0.0316,-0.0256,-0.0214,-0.0203,-0.0151,-0.0133,-0.0127,-0.007,-0.0039,0.0077,0.0071,0.0085,0.009,0.0198,0.0198,0.0199,0.0142,0.0138,0.0134,0,0,0,0,0,0,-0.038,-0.0333,-0.0313,-0.0311,-0.027,-0.0202,-0.0195,-0.016,-0.011,-0.0105,-0.0035,-0.0017,0.0025,0.0064,0.0056,0.0123,0.0141,0.0144,0.0093,0.009,0.0086,0.0069,0.01,0,0,0,0,0,-0.0396,-0.0394,-0.0338,-0.0338,-0.0322,-0.026,-0.0239,-0.0204,-0.0151,-0.0128,-0.0072,-0.0014,0.0037,0.0068,0.0115,0.0153,0.0196,0.0164,0.0161,0.0158,0.0153,0.0221,0.0223,0.02,0.02,0.02,0,0,-0.0417,-0.0391,-0.0391,-0.0349,-0.0314,-0.0295,-0.0246,-0.022,-0.0198,-0.0123,-0.0081,-0.0028,0.0042,0.0087,0.0109,0.0122,0.0187,0.0158,0.0155,0.0152,0.0221,0.0224,0.0226,0.02,0.02,0.02,0,0,-0.0459,-0.0436,-0.0447,-0.0416,-0.0372,-0.033,-0.0327,-0.0262,-0.0228,-0.0182,-0.0122,-0.0066,0.0007,0.0067,0.0104,0.0109,0.0162,0.0118,0.0095,0.016,0.0162,0.0165,0.0222,0.023,0.0122,0.0122,0.0122,0,-0.0488,-0.0489,-0.0443,-0.044,-0.0421,-0.0352,-0.0351,-0.0305,-0.0231,-0.02,-0.0181,-0.0057,0.0,0.0071,0.0074,0.0102,0.0141,0.0103,0.0155,0.0158,0.0162,0.022,0.023,0.0119,0.012,0.012,0.012,0,-0.0528,-0.0528,-0.0533,-0.0505,-0.0478,-0.0469,-0.04,-0.0367,-0.0319,-0.0263,-0.0191,-0.0104,-0.0029,-0.0001,0.0039,0.0096,0.0115,0.0137,0.0162,0.0161,0.0222,0.0233,0.0115,0.0116,0.0117,0.0118,0,0,-0.0595,-0.0569,-0.057,-0.057,-0.0513,-0.0497,-0.0459,-0.04,-0.0372,-0.0292,-0.0244,-0.0147,-0.0095,-0.0049,0.0016,0.0077,0.0139,0.011,0.0115,0.0159,0.0277,0.0316,0.0332,0.0167,0.0169,0.017,0.0308,0,-0.0641,-0.0664,-0.0627,-0.0637,-0.0641,-0.0567,-0.0538,-0.0472,-0.0403,-0.0338,-0.0231,-0.0165,-0.0113,-0.0076,-0.0007,0.0104,0.0166,0.01,0.0278,0.0283,0.0312,0.0346,0.0293,0.0414,0.032,0.0322,0.0323,0,-0.0689,-0.0699,-0.0726,-0.0705,-0.0698,-0.0688,-0.0627,-0.059,-0.0475,-0.0419,-0.0325,-0.0237,-0.0124,-0.0089,0.01,0.0053,0.0153,0.0238,0.0246,0.031,0.0343,0.0402,0.0438,0.0342,0.0341,0.0339,0.0338,0,-0.0762,-0.0764,-0.0793,-0.0786,-0.0748,-0.0741,-0.0713,-0.0619,-0.0584,-0.0467,-0.0422,-0.0276,-0.0195,-0.0055,0.0129,0.0114,0.0335,0.0341,0.0473,0.0476,0.0481,0.0483,0.0467,0.0467,0.0466,0.0466,0.0466,0,-0.0824,-0.0844,-0.0835,-0.0851,-0.0878,-0.0818,-0.0814,-0.0757,-0.0668,-0.062,-0.0476,-0.0396,-0.0184,-0.0024,0.0123,0.0343,0.0338,0.0478,0.0521,0.0459,0.0457,0.0432,0.0426,0.0471,0.047,0.0469,0.0468,0,-0.0895,-0.0887,-0.0924,-0.0915,-0.0916,-0.0936,-0.09,-0.0886,-0.079,-0.0722,-0.0686,-0.0476,-0.0256,-0.0036,0.0218,0.0343,0.054,0.0615,0.0527,0.0558,0.0634,0.0623,0.0771,0.0773,0.0776,0.0777,0.0779,0,-0.0932,-0.0961,-0.0992,-0.1023,-0.1025,-0.1039,-0.1043,-0.0964,-0.0934,-0.0761,-0.0729,-0.0496,-0.0306,0.0087,0.0347,0.0627,0.0621,0.0728,0.0694,0.0642,0.0669,0.0654,0.0641,0.0677,0.0678,0.0678,0.0679,0,-0.1002,-0.1014,-0.1048,-0.1121,-0.115,-0.1171,-0.1162,-0.1158,-0.1039,-0.0939,-0.0758,-0.0587,-0.0196,0.0122,0.0481,0.0631,0.0678,0.0748,0.0739,0.0604,0.0564,0.0587,0.0575,0.0683,0.0683,0.0682,0.0682,0.0682,-0.1049,-0.1098,-0.1147,-0.1211,-0.1251,-0.1279,-0.1284,-0.1233,-0.1159,-0.0972,-0.0801,-0.0496,-0.0208,0.0325,0.0554,0.0769,0.0774,0.0811,0.0805,0.08,0.076,0.0726,0.0868,0.0868,0.0869,0.0869,0.0869,0,-0.1102,-0.1154,-0.1229,-0.1297,-0.1351,-0.1345,-0.1339,-0.1292,-0.1188,-0.0973,-0.0749,-0.0381,-0.0015,0.0291,0.0636,0.0833,0.0798,0.0852,0.0756,0.0751,0.0747,0.07,0.0795,0.0795,0.0796,0.0796,0,0,-0.1129,-0.1212,-0.1254,-0.1357,-0.1403,-0.1429,-0.1417,-0.1304,-0.1142,-0.0909,-0.0662,-0.0352,0.0018,0.0239,0.0473,0.0647,0.0642,0.0656,0.0694,0.0547,0.054,0.0704,0.0626,0,0,0,0,0]}],[{"header":{"parameterUnit":"m.s-1","parameterCategory":2,"la1":30.2991,"la2":30.254,"lo1":-89.0895,"lo2":-89.0444,"dy":0.0017,"dx":0.0017,"nx":28,"ny":28,"refTime":"2025-04-18T21:00:00:Z","depth":"4","parameterNumber":2,"parameterNumberName":"U-component_of_CURRENTS"},"data":[0,0,0,0,0,0,0,0,0,0,0,0,0,0,0,0,0,0,0,0,0,0,0,0,0,0,0,0,0,0,0,0,0,0,0,0,0,0,0,0,0,0,0,0,0,0,0,0,0,0,0,0,0,0,0,0,0,0,-0.186,-0.1861,0,-0.1936,-0.1937,-0.1937,-0.1973,-0.1974,-0.1974,-0.1974,-0.2018,-0.2019,-0.202,0,0,0,0,0,0,0,0,0,0,0,0,0,-0.1739,-0.1741,-0.186,-0.1861,-0.1862,-0.1936,-0.1937,-0.1937,-0.1973,-0.1974,-0.1974,-0.1974,-0.2018,-0.2019,-0.202,0,0,0,0,0,0,0,0,0,0,0,0,0,-0.1799,-0.1742,-0.186,-0.1891,-0.1894,-0.1936,-0.1937,-0.1938,-0.1973,-0.1974,-0.1974,-0.1974,-0.2018,-0.2019,-0.2021,-0.2025,0,0,-0.2025,-0.2026,0,0,0,0,0,0,0,0,-0.1795,-0.1803,-0.1885,-0.1889,-0.1893,-0.1947,-0.1911,-0.1966,-0.1973,-0.1941,-0.1974,-0.1974,-0.1993,-0.1997,-0.2007,-0.2027,-0.2029,-0.2025,-0.2026,-0.2027,-0.2027,0,0,0,0,0,0,0,-0.1791,-0.18,-0.1888,-0.1886,-0.1891,-0.1899,-0.1907,-0.1921,-0.1962,-0.1944,-0.1947,-0.1959,-0.1995,-0.2006,-0.2009,-0.2029,-0.2025,-0.2027,-0.2028,-0.2028,-0.213,-0.2132,0,0,0,0,0,0,-0.1787,-0.1796,-0.1885,-0.189,-0.1846,-0.1901,-0.191,-0.1928,-0.1963,-0.1969,-0.1959,-0.1961,-0.2003,-0.2007,-0.201,-0.2087,-0.2027,-0.2028,-0.2029,-0.2128,-0.2131,-0.2133,0,0,0,0,0,0,-0.1784,-0.1794,-0.1882,-0.1846,-0.1858,-0.1903,-0.1922,-0.1929,-0.1971,-0.1975,-0.1981,-0.1997,-0.2003,-0.2008,-0.2055,-0.2086,-0.2029,-0.203,-0.2126,-0.2129,-0.2132,-0.2196,0,0,0,0,0,0,-0.1781,-0.1793,-0.182,-0.1846,-0.186,-0.193,-0.1922,-0.1931,-0.1977,-0.1981,-0.2009,-0.2012,-0.2004,-0.2053,-0.2057,-0.2087,-0.2032,-0.2124,-0.2128,-0.2131,-0.2191,-0.22,-0.2208,0,0,0,0,0,-0.1776,-0.1808,-0.1821,-0.1833,-0.1891,-0.1932,-0.194,-0.197,-0.1979,-0.2007,-0.2029,-0.2013,-0.2077,-0.2056,-0.206,-0.2092,-0.2122,-0.2127,-0.213,-0.2187,-0.2198,-0.2208,0,0,0,0,0,0,-0.1774,-0.1816,-0.183,-0.1876,-0.1912,-0.1939,-0.1974,-0.199,-0.203,-0.2042,-0.2038,-0.2044,-0.2094,-0.2089,-0.2066,-0.2132,-0.2096,-0.2101,-0.2138,-0.2148,-0.2156,-0.2142,-0.2033,0,0,0,0,0,-0.1785,-0.182,-0.1857,-0.1897,-0.1919,-0.1952,-0.1979,-0.2001,-0.2032,-0.2051,-0.2071,-0.2092,-0.2109,-0.2127,-0.2142,-0.2182,-0.2155,-0.2204,-0.2213,-0.222,-0.2212,-0.2205,-0.2211,-0.2146,-0.2146,-0.2146,0,0,-0.1795,-0.1824,-0.1845,-0.1899,-0.1931,-0.1968,-0.197,-0.2024,-0.2057,-0.2048,-0.2112,-0.2125,-0.2127,-0.2171,-0.2193,-0.2173,-0.2227,-0.2225,-0.2231,-0.2218,-0.221,-0.2216,-0.2221,-0.2149,-0.2148,-0.2148,0,0,-0.1817,-0.1861,-0.1892,-0.1928,-0.1984,-0.2005,-0.2028,-0.2078,-0.2108,-0.2165,-0.2164,-0.2197,-0.2237,-0.2239,-0.2242,-0.2306,-0.2271,-0.2322,-0.2352,-0.2347,-0.2351,-0.2355,-0.2333,-0.2334,-0.2325,-0.2326,-0.2326,0,-0.1829,-0.1871,-0.1909,-0.1946,-0.198,-0.2025,-0.2063,-0.2101,-0.2161,-0.2184,-0.2197,-0.2254,-0.2262,-0.2291,-0.2316,-0.2323,-0.231,-0.2313,-0.2355,-0.2358,-0.2361,-0.2338,-0.2338,-0.2329,-0.2329,-0.2328,-0.2328,0,-0.1857,-0.1908,-0.1934,-0.1991,-0.2034,-0.2081,-0.2131,-0.2183,-0.2226,-0.2251,-0.2311,-0.2329,-0.2354,-0.237,-0.2364,-0.2393,-0.2375,-0.2366,-0.2324,-0.2371,-0.2344,-0.2343,-0.2334,-0.2333,-0.2332,-0.2331,0,0,-0.1831,-0.1933,-0.1943,-0.1981,-0.2064,-0.2097,-0.2166,-0.2225,-0.2265,-0.2327,-0.2366,-0.2409,-0.2419,-0.2423,-0.2427,-0.2428,-0.2441,-0.2412,-0.241,-0.238,-0.2422,-0.2275,-0.226,-0.2444,-0.2444,-0.2444,-0.2397,0,-0.1841,-0.1912,-0.1963,-0.2037,-0.2077,-0.2146,-0.2202,-0.2264,-0.2317,-0.237,-0.2396,-0.2438,-0.2439,-0.246,-0.2464,-0.2449,-0.2442,-0.2454,-0.239,-0.2387,-0.2242,-0.2255,-0.2445,-0.2396,-0.2396,-0.2396,-0.2395,0,-0.1835,-0.1888,-0.1961,-0.206,-0.2086,-0.214,-0.2231,-0.2286,-0.2362,-0.2405,-0.2449,-0.2471,-0.2496,-0.2488,-0.2476,-0.2488,-0.2459,-0.244,-0.2438,-0.2271,-0.2238,-0.234,-0.2393,-0.2393,-0.2394,-0.2394,-0.2394,0,-0.1772,-0.1881,-0.194,-0.1976,-0.2094,-0.2146,-0.2209,-0.2297,-0.2343,-0.2424,-0.246,-0.2495,-0.2516,-0.2497,-0.247,-0.2479,-0.2437,-0.2439,-0.2274,-0.2264,-0.2383,-0.2379,-0.2414,-0.2414,-0.2414,-0.2414,-0.2414,0,-0.1738,-0.1789,-0.1924,-0.1955,-0.2027,-0.2122,-0.2198,-0.2265,-0.2355,-0.2387,-0.2469,-0.2481,-0.2522,-0.2507,-0.2473,-0.2358,-0.2436,-0.2264,-0.2236,-0.2413,-0.2414,-0.2382,-0.2379,-0.2412,-0.2413,-0.2413,-0.2413,0,-0.1649,-0.1742,-0.1817,-0.1955,-0.2,-0.2049,-0.2185,-0.2224,-0.2333,-0.2374,-0.2401,-0.2476,-0.2448,-0.2456,-0.2418,-0.2339,-0.226,-0.22,-0.2379,-0.2365,-0.2091,-0.2093,-0.2004,-0.1998,-0.1993,-0.1989,-0.1986,0,-0.1605,-0.1638,-0.1792,-0.1831,-0.1899,-0.1995,-0.2048,-0.2188,-0.222,-0.2336,-0.2325,-0.2362,-0.2383,-0.2199,-0.224,-0.2151,-0.2127,-0.2079,-0.2089,-0.2064,-0.2047,-0.2056,-0.2064,-0.1978,-0.1977,-0.1975,-0.1974,0,-0.1511,-0.1584,-0.1642,-0.1727,-0.1799,-0.1865,-0.1952,-0.1964,-0.2095,-0.2224,-0.2174,-0.2149,-0.2114,-0.2076,-0.2025,-0.1968,-0.2108,-0.2028,-0.2038,-0.2047,-0.2032,-0.2022,-0.2035,-0.1957,-0.196,-0.1961,-0.1962,0,-0.1434,-0.145,-0.1535,-0.1589,-0.1673,-0.1688,-0.1766,-0.1793,-0.1846,-0.1982,-0.1955,-0.1995,-0.2076,-0.1978,-0.1928,-0.1863,-0.1837,-0.1776,-0.1799,-0.1818,-0.178,-0.1737,-0.1529,0,0,0,0,0,-0.1345,-0.1341,-0.1384,-0.1433,-0.151,-0.1552,-0.1669,-0.1749,-0.1885,-0.1789,-0.1867,-0.1821,-0.1759,-0.1789,-0.1678,-0.1849,-0.1848,-0.1715,-0.1792,-0.1864,-0.1884,-0.1858,0,0,0,0,0,0,-0.1282,-0.1315,-0.1328,-0.1283,-0.1281,-0.1342,-0.1406,-0.1505,-0.1469,-0.1612,-0.158,-0.1697,-0.1657,-0.1771,-0.163,-0.1639,-0.1648,-0.1759,-0.1754,-0.1853,-0.1871,-0.1886,-0.1867,0,0,0,0,0]},{"header":{"parameterUnit":"m.s-1","parameterCategory":2,"la1":30.2991,"la2":30.254,"lo1":-89.0895,"lo2":-89.0444,"dy":0.0017,"dx":0.0017,"nx":28,"ny":28,"refTime":"2025-04-18T21:00:00:Z","depth":"4","parameterNumber":3,"parameterNumberName":"V-component_of_CURRENTS"},"data":[0,0,0,0,0,0,0,0,0,0,0,0,0,0,0,0,0,0,0,0,0,0,0,0,0,0,0,0,0,0,0,0,0,0,0,0,0,0,0,0,0,0,0,0,0,0,0,0,0,0,0,0,0,0,0,0,0,0,-0.0244,-0.0243,0,-0.0166,-0.0165,-0.0164,-0.0115,-0.0115,-0.0115,-0.0114,-0.0013,-0.001,-0.0008,0,0,0,0,0,0,0,0,0,0,0,0,0,-0.0296,-0.0296,-0.0244,-0.0243,-0.0242,-0.0166,-0.0165,-0.0163,-0.0115,-0.0115,-0.0115,-0.0114,-0.0013,-0.001,-0.0007,0,0,0,0,0,0,0,0,0,0,0,0,0,-0.025,-0.0296,-0.0244,-0.021,-0.0206,-0.0166,-0.0164,-0.0163,-0.0115,-0.0115,-0.0115,-0.0114,-0.0014,-0.0011,-0.0007,0.0012,0,0,0.0005,0.0006,0,0,0,0,0,0,0,0,-0.0253,-0.0248,-0.0216,-0.0212,-0.0208,-0.0151,-0.0146,-0.0104,-0.0115,-0.0148,-0.0114,-0.0114,-0.0058,-0.005,-0.0035,0.0017,0.0021,0.0005,0.0007,0.0009,0.001,0,0,0,0,0,0,0,-0.0256,-0.0251,-0.0212,-0.0215,-0.021,-0.0179,-0.0173,-0.0137,-0.0104,-0.0145,-0.0142,-0.0135,-0.0055,-0.0039,-0.0032,0.0023,0.0005,0.0008,0.0011,0.0012,0.0104,0.0104,0,0,0,0,0,0,-0.0271,-0.0254,-0.0214,-0.0209,-0.0231,-0.0179,-0.0171,-0.0168,-0.0105,-0.0095,-0.0135,-0.0133,-0.0045,-0.0036,-0.0028,0.0003,0.0009,0.0013,0.0015,0.0103,0.0104,0.0104,0,0,0,0,0,0,-0.0273,-0.0269,-0.0217,-0.0231,-0.0222,-0.0179,-0.0175,-0.0167,-0.0153,-0.0098,-0.0087,-0.013,-0.0045,-0.0034,0.0006,0.0007,0.0014,0.0018,0.0103,0.0104,0.0104,0.0063,0,0,0,0,0,0,-0.0275,-0.027,-0.0276,-0.0232,-0.0222,-0.02,-0.0175,-0.0166,-0.0149,-0.0146,-0.009,-0.008,-0.0044,-0.0,0.0009,0.0013,0.0021,0.0103,0.0103,0.0104,0.0064,0.0062,0.0059,0,0,0,0,0,-0.0277,-0.0286,-0.0277,-0.0272,-0.0231,-0.0201,-0.0193,-0.0159,-0.015,-0.0145,-0.0104,-0.0082,0.0008,0.0003,0.0014,0.0019,0.0103,0.0103,0.0104,0.0065,0.0062,0.0059,0,0,0,0,0,0,-0.031,-0.028,-0.027,-0.0269,-0.0241,-0.0193,-0.0189,-0.0166,-0.013,-0.0128,-0.0076,-0.0063,-0.0031,-0.0,-0.0007,0.0045,0.0058,0.006,0.0024,0.0022,0.002,0.0004,0.0024,0,0,0,0,0,-0.0322,-0.0324,-0.0285,-0.0287,-0.0276,-0.0235,-0.022,-0.0197,-0.0159,-0.0144,-0.0102,-0.0059,-0.002,0.0004,0.004,0.0072,0.0106,0.0081,0.0079,0.0076,0.0072,0.013,0.0132,0.0105,0.0105,0.0105,0,0,-0.0337,-0.0321,-0.0322,-0.0295,-0.0272,-0.0259,-0.0225,-0.0208,-0.0194,-0.0138,-0.0109,-0.0069,-0.0015,0.002,0.0037,0.0047,0.0102,0.0077,0.0075,0.0071,0.013,0.0133,0.0135,0.0105,0.0105,0.0105,0,0,-0.0365,-0.0352,-0.0361,-0.0341,-0.0313,-0.0284,-0.0283,-0.0238,-0.0214,-0.0181,-0.0137,-0.0093,-0.0039,0.0008,0.0037,0.0044,0.0084,0.0049,0.0033,0.0089,0.0092,0.0095,0.0139,0.0146,0.0054,0.0054,0.0054,0,-0.0385,-0.0389,-0.0358,-0.0357,-0.0347,-0.03,-0.0301,-0.0268,-0.0215,-0.0193,-0.018,-0.0086,-0.0042,0.0015,0.0017,0.004,0.007,0.0039,0.0086,0.009,0.0093,0.0138,0.0146,0.0052,0.0052,0.0052,0.0052,0,-0.0411,-0.0416,-0.0419,-0.0404,-0.0387,-0.0382,-0.0334,-0.0312,-0.028,-0.0239,-0.0185,-0.0117,-0.006,-0.0038,-0.0007,0.0041,0.0054,0.0072,0.0091,0.0094,0.0141,0.015,0.0049,0.005,0.005,0.0051,0,0,-0.0453,-0.0443,-0.0446,-0.0451,-0.0413,-0.0404,-0.0378,-0.0337,-0.0321,-0.0259,-0.0225,-0.0147,-0.0108,-0.0073,-0.0021,0.0031,0.0085,0.0055,0.0059,0.0094,0.02,0.0177,0.0186,0.011,0.0111,0.0113,0.0221,0,-0.0485,-0.0508,-0.0484,-0.0499,-0.0505,-0.0457,-0.0438,-0.0393,-0.0344,-0.0298,-0.0213,-0.0165,-0.012,-0.0094,-0.0033,0.0054,0.0108,0.0054,0.0195,0.0199,0.0176,0.0195,0.0117,0.0228,0.023,0.0232,0.0233,0,-0.0516,-0.0529,-0.0557,-0.0553,-0.055,-0.055,-0.0515,-0.049,-0.0407,-0.0366,-0.0292,-0.0224,-0.0131,-0.0101,0.0055,0.0016,0.0099,0.0168,0.0175,0.0173,0.0194,0.0227,0.0251,0.0249,0.0248,0.0247,0.0246,0,-0.0564,-0.0577,-0.0607,-0.0606,-0.059,-0.0594,-0.0582,-0.0517,-0.0496,-0.0409,-0.0379,-0.0257,-0.0197,-0.0076,0.0072,0.0063,0.024,0.0251,0.0314,0.0313,0.0319,0.0315,0.036,0.036,0.0359,0.0359,0.0359,0,-0.06,-0.0625,-0.0641,-0.0657,-0.0693,-0.0656,-0.0668,-0.063,-0.0571,-0.054,-0.0425,-0.0367,-0.0189,-0.0062,0.0064,0.0217,0.0241,0.0312,0.0342,0.0298,0.0291,0.0326,0.032,0.0363,0.0362,0.0361,0.0361,0,-0.064,-0.0649,-0.0691,-0.0708,-0.072,-0.0746,-0.0744,-0.0741,-0.0676,-0.0631,-0.0606,-0.0444,-0.0276,-0.0095,0.0115,0.0201,0.0353,0.0403,0.0339,0.0363,0.0389,0.0381,0.0475,0.0475,0.0476,0.0476,0.0476,0,-0.0658,-0.0686,-0.0745,-0.0784,-0.0799,-0.0832,-0.085,-0.0804,-0.0787,-0.0672,-0.0647,-0.0479,-0.0355,-0.0068,0.0111,0.0351,0.0381,0.0448,0.042,0.0383,0.0403,0.0394,0.0385,0.0476,0.0476,0.0476,0.0476,0,-0.0693,-0.0723,-0.0761,-0.0847,-0.0893,-0.0929,-0.0943,-0.0939,-0.0864,-0.0813,-0.0661,-0.0491,-0.0299,-0.0071,0.0118,0.0288,0.0395,0.045,0.045,0.0424,0.0385,0.0403,0.0394,0.0477,0.0477,0.0477,0.0476,0,-0.072,-0.0763,-0.0825,-0.0892,-0.0961,-0.0996,-0.1,-0.0954,-0.092,-0.0779,-0.0732,-0.05,-0.0358,-0.0103,0.0072,0.0236,0.0268,0.0301,0.031,0.0311,0.0226,0.0149,0.0197,0,0,0,0,0,-0.0735,-0.0785,-0.0861,-0.0931,-0.1001,-0.103,-0.1043,-0.1025,-0.0959,-0.086,-0.0787,-0.0596,-0.0305,-0.017,-0.0009,0.0048,0.0272,0.0235,0.0307,0.0479,0.0479,0.0403,0,0,0,0,0,0,-0.0746,-0.0821,-0.086,-0.0946,-0.0997,-0.1056,-0.1065,-0.1022,-0.0948,-0.0858,-0.0696,-0.0582,-0.0297,-0.0393,-0.0011,0.004,0.0099,0.0384,0.0387,0.048,0.0479,0.0479,0.0401,0,0,0,0,0]}]]